Showing default

GHOST-5, 59130

Orbit data source: Space-Track

GHOST-5, 59130 is a payload satellite owned by Orbital Sidekick (US) in SSO that was launched on Mon, 04 Mar 2024 UTC via an FALCON 9 launch vehicle from the Air Force Western Test Range (AFWTR). Payload-class satellites include a variety of spacecraft equipped with specific instruments for various scientific and technological missions. These include communications satellites like Starlink; space stations such as the ISS; scientific satellites like the Hubble; Earth observation satellites from companies like Planet Labs, Umbra, and HawkEye 360; GPS; miniature CubeSats for education and research; and military/defense satellites.

Loading next visibility...
Identifier
59130, 2024-043AJ
Orbit
SSO
Last TLE update
1 day ago
Origin
Manufacturer
Astro Digital
Mission
Operational Commercial Imaging
Bus & Motor
CORVUS-XL, Unknown motor
Mass
85 kg wet, 85 kg dry
Launch date (UTC)
2024-03-04 (1 year ago)
Launch vehicle
FALCON 9
Launch site
Air Force Western Test Range (AFWTR)
Object type
Payload
Rocket body
Debris
Shape & HBR
Box + 1 Dish, 1.0 m
Radar Cross Section
0.425 m², Medium (>0.1 m² and < 1m²)

Expand to show TLE details & history

TLE from 1 day ago
0 GHOST-5
1 59130U 24043AJ  25199.61285510  .00007382  00000-0  24149-3 0  9998
2 59130  97.5172 330.4484 0009040 336.8275  23.2558 15.31967423 76261
Epoch: 2025-07-18T14:42Z
TLE epoch observation values (Epoch: 2025-07-18T14:42:30.68Z)
Latitude
0.00002°
Longitude
173.15876°
Altitude
467.358 km
Speed
7.636 km/s
True Right ascension
22h 01m 47s
True Declination
0° 00' 00"
Sunlit
Object was in full shadow at epoch
Visualization orbit readout
Latitude
-80.80758°
Longitude
-131.6104°
Altitude
494.787 km
Speed
7.618 km/s
Apparent Right ascension
16h 53m 54s
Apparent Declination
-69° 18' 55"
Sunlit
Object is in daylight
Visualization observer readout
Local Sidereal Time
04:15:33
Azimuth
186.79° SSW
Elevation
-60.162°
Doppler factor
1
Orbital elements
Apogee altitude
473.086 km
Perigee altitude
460.71 km
Semi-major axis
6,845.035 km
Eccentricity
0.0009
Inclination
97.5172°
RAAN
330.4484°
Arg. of periapsis
336.8275°
True anomaly
23.29674°
Mean anomaly
23.2558°
Eccentric anomaly
23.27627°
Mean motion
3.83248 °/min
Orbital period
93.93 mins
BSTAR
0.00024149
Loading maneuver chart data...
Loading SW <> Apogee altitude chart data...
Loading historical data...
Loading historical data...
Loading historical data...
Loading historical data...
Loading historical data...
Loading historical data...
Loading historical data...
|